Location: Peebles
(55.6412°N, 3.1714°W)
Time: 22:28:20
(UTC+00:00)

FENGYUN 1C DEB - Pass Details

Date: 05 February 2023
Orbit: 707 x 862 km, 98.5° (Epoch: 07 November)

Event Time Altitude Azimuth Distance (km) Brightness Sun altitude
Rises 07:08:35 0° 24° (NNE) 3,396 ? -7.4°
Reaches altitude 10° 07:11:55 10° 45° (NE) 2,434 ? -6.9°
Maximum altitude 07:15:15 16° 84° (E) 1,988 ? -6.5°
Drops below altitude 10° 07:18:31 10° 122° (ESE) 2,370 ? -6.1°
Sets 07:21:41 0° 144° (SE) 3,263 ? -5.6°
